{"data":{"norad_id":65462,"intl_designator":"2025-195E","name":"STARLINK-35180","alt_names":[],"object_type":"PAYLOAD","status":"ACTIVE","operator":null,"country":"US","launch_date":"2025-09-03","launch_site_code":"AFETR","launch_vehicle":null,"mission":null,"orbit_class":"UNKNOWN","rcs_meters":null,"size_class":null,"mass_kg":null,"dimensions":null,"purposes":["comms"],"wikipedia_slug":null,"has_3d_model":false,"image_url":null,"decayed_at":null,"tle_current":{"epoch":"2026-09-20T07:29:42.632736Z","epoch_age_seconds":131111,"freshness":"FRESH","line1":"1 65462U 25195E   26263.31229899  .00004119  00000+0  13304-3 0  9995","line2":"2 65462  53.1616  70.4666 0000861 100.2648 259.8452 15.34383621 59849","mean_motion":15.34383621,"eccentricity":8.61e-5,"inclination_deg":53.1616,"raan_deg":70.4666,"arg_perigee_deg":100.2648,"mean_anomaly_deg":259.8452,"bstar":0.00013304,"rev_number":5984,"period_min":93.848759872809,"perigee_km":462.16292194365,"apogee_km":463.3409230161,"semimajor_km":6840.8889224799,"source":"CELESTRAK","updated_at":"2026-09-21T09:00:35.614461Z"}}}